Clermont County, Batavia, OH

5:20 PM EST on December 05, 2019 (GMT -0500)
Clermont County, Batavia

Weather History for KI69 - October, 2019

Change the Weather History Date:

Wednesday, October 23, 2019

  Actual Average (WUND) Record (WUND)
Temperature  
Mean Temperature 52 °F -  
Max Temperature 63 °F - - (-1)
Min Temperature 41 °F - - (-1)
Degree Days  
Heating Degree Days 13    
Growing Degree Days 2 (Base 50)    
Moisture  
Dew Point 35 °F    
Average Humidity 54    
Maximum Humidity 79    
Minimum Humidity 30    
Precipitation  
Precipitation 0.00 in - - ()
Sea Level Pressure  
Sea Level Pressure 30.10 in    
Wind  
Wind Speed 7 mph (SW)    
Max Wind Speed 14 mph    
Max Gust Speed 21 mph    
Visibility 10 miles    
Events      
Averages and records for this station are not official NWS values.
T = Trace of Precipitation, MM = Missing Value Source: NWS Daily Summary

Daily Weather History Graph

Daily Weather History Graph

Search for Another Location

Airport or City:

Astronomy

Oct. 23, 2019 Rise Set
Actual Time 7:54 AM EDT 6:47 PM EDT
Civil Twilight 7:27 AM EDT 7:14 PM EDT
Nautical Twilight 6:55 AM EDT 7:45 PM EDT
Astronomical Twilight 6:24 AM EDT 8:16 PM EDT
Moon 2:15 AM EDT (10/23) 4:34 PM EDT (10/23)
Length of Visible Light 11h 47m
Length of Day
10h 52m
Waning Crescent, 27% of the Moon is Illuminated
Oct 23
Waning Crescent
Oct 27
New
Nov 4
First Quarter
Nov 12
Full
Nov 19
Last Quarter

Hourly Weather History & Observations

Time (EDT) Temp. Windchill Dew Point Humidity Pressure Visibility Wind Dir Wind Speed Gust Speed Precip Events Conditions
12:16 AM 51.1 °F - 40.5 °F 67% 29.97 in 10.0 mi SW 5.8 mph - N/A   Overcast
12:35 AM 50.4 °F - 40.1 °F 68% 29.97 in 10.0 mi SW 5.8 mph - N/A   Mostly Cloudy
12:55 AM 49.3 °F - 40.1 °F 71% 29.97 in 10.0 mi SW 5.8 mph - N/A   Scattered Clouds
1:19 AM 48.9 °F - 40.3 °F 72% 29.98 in 10.0 mi SW 4.6 mph - N/A   Scattered Clouds
1:37 AM 48.2 °F - 40.1 °F 74% 29.97 in 10.0 mi SW 5.8 mph - N/A   Scattered Clouds
1:56 AM 47.5 °F - 40.1 °F 76% 29.98 in 10.0 mi SW 5.8 mph - N/A   Clear
2:15 AM 47.5 °F - 40.1 °F 76% 29.99 in 10.0 mi WSW 5.8 mph - N/A   Clear
2:35 AM 48.2 °F - 39.7 °F 73% 29.99 in 10.0 mi SW 6.9 mph - N/A   Clear
2:59 AM 46.9 °F - 39.7 °F 76% 30.00 in 10.0 mi SW 6.9 mph - N/A   Clear
3:17 AM 46.8 °F - 39.6 °F 76% 30.01 in 10.0 mi SW 5.8 mph - N/A   Clear
3:35 AM 46.0 °F 43.1 °F 39.4 °F 78% 30.00 in 10.0 mi WSW 5.8 mph - N/A   Clear
3:55 AM 45.5 °F 42.5 °F 38.7 °F 77% 30.01 in 10.0 mi SW 5.8 mph - N/A   Clear
4:15 AM 45.0 °F 41.8 °F 38.3 °F 77% 30.01 in 10.0 mi SW 5.8 mph - N/A   Clear
4:39 AM 44.6 °F 40.7 °F 37.8 °F 77% 30.02 in 10.0 mi SW 6.9 mph - N/A   Clear
4:57 AM 44.6 °F 41.4 °F 37.4 °F 76% 30.03 in 10.0 mi SW 5.8 mph - N/A   Clear
5:15 AM 44.2 °F 39.7 °F 37.0 °F 76% 30.05 in 10.0 mi SW 8.1 mph - N/A   Clear
5:35 AM 44.2 °F 40.3 °F 36.7 °F 75% 30.05 in 10.0 mi SW 6.9 mph - N/A   Clear
5:55 AM 43.2 °F 39.0 °F 36.5 °F 77% 30.05 in 10.0 mi SW 6.9 mph - N/A   Clear
6:19 AM 42.4 °F 38.1 °F 36.0 °F 78% 30.06 in 10.0 mi SW 6.9 mph - N/A   Clear
6:37 AM 42.8 °F 38.6 °F 36.0 °F 77% 30.06 in 10.0 mi SW 6.9 mph - N/A   Clear
6:55 AM 41.9 °F 36.9 °F 36.0 °F 79% 30.07 in 10.0 mi WSW 8.1 mph - N/A   Clear
7:16 AM 42.8 °F 38.6 °F 35.1 °F 74% 30.07 in 10.0 mi SW 6.9 mph - N/A   Clear
7:59 AM 41.9 °F 37.5 °F 34.7 °F 76% 30.08 in 10.0 mi SW 6.9 mph - N/A   Clear
8:17 AM 42.4 °F 38.8 °F 34.7 °F 74% 30.08 in 10.0 mi SW 5.8 mph - N/A   Clear
8:35 AM 42.1 °F 37.7 °F 35.1 °F 76% 30.10 in 10.0 mi WSW 6.9 mph - N/A   Clear
8:55 AM 43.5 °F 39.4 °F 35.2 °F 73% 30.10 in 10.0 mi SW 6.9 mph - N/A   Clear
9:16 AM 45.0 °F 40.6 °F 35.6 °F 70% 30.12 in 10.0 mi WSW 8.1 mph - N/A   Clear
9:39 AM 46.6 °F - 34.7 °F 63% 30.12 in 10.0 mi SW 8.1 mph - N/A   Clear
9:57 AM 47.5 °F - 34.9 °F 62% 30.14 in 10.0 mi SW 8.1 mph - N/A   Clear
10:15 AM 49.1 °F - 35.2 °F 59% 30.14 in 10.0 mi WSW 8.1 mph - N/A   Clear
10:35 AM 50.9 °F - 35.6 °F 56% 30.15 in 10.0 mi WSW 9.2 mph - N/A   Clear
10:55 AM 52.7 °F - 34.9 °F 51% 30.16 in 10.0 mi SW 8.1 mph - N/A   Clear
11:19 AM 53.8 °F - 33.1 °F 45% 30.16 in 10.0 mi SW 10.4 mph - N/A   Clear
11:37 AM 54.5 °F - 33.4 °F 45% 30.16 in 10.0 mi SW 8.1 mph - N/A   Clear
11:55 AM 55.4 °F - 33.1 °F 43% 30.16 in 10.0 mi SW 9.2 mph 17.3 mph N/A   Clear
12:15 PM 56.7 °F - 32.5 °F 40% 30.16 in 10.0 mi SSW 10.4 mph - N/A   Clear
12:35 PM 57.7 °F - 32.2 °F 38% 30.16 in 10.0 mi SW 12.7 mph - N/A   Clear
12:58 PM 59.2 °F - 32.4 °F 36% 30.16 in 10.0 mi SW 9.2 mph - N/A   Clear
1:17 PM 59.2 °F - 31.8 °F 36% 30.16 in 10.0 mi SW 10.4 mph 20.7 mph N/A   Clear
1:35 PM 60.6 °F - 32.0 °F 34% 30.15 in 10.0 mi West 11.5 mph 16.1 mph N/A   Clear
1:55 PM 61.0 °F - 32.4 °F 34% 30.15 in 10.0 mi WSW 12.7 mph 19.6 mph N/A   Clear
2:15 PM 61.5 °F - 32.4 °F 33% 30.14 in 10.0 mi SSW 8.1 mph - N/A   Clear
2:38 PM 62.1 °F - 32.4 °F 33% 30.14 in 10.0 mi WSW 12.7 mph 17.3 mph N/A   Clear
2:56 PM 62.6 °F - 32.5 °F 32% 30.14 in 10.0 mi SSW 8.1 mph - N/A   Clear
3:15 PM 62.8 °F - 32.7 °F 32% 30.13 in 10.0 mi SW 13.8 mph 19.6 mph N/A   Clear
3:35 PM 63.1 °F - 31.8 °F 31% 30.13 in 10.0 mi SW 10.4 mph - N/A   Clear
3:55 PM 63.5 °F - 32.0 °F 31% 30.12 in 10.0 mi SSW 8.1 mph - N/A   Clear
4:18 PM 63.7 °F - 31.8 °F 30% 30.12 in 10.0 mi SSW 5.8 mph - N/A   Clear
4:56 PM 63.9 °F - 32.0 °F 30% 30.12 in 10.0 mi SW 9.2 mph - N/A   Clear
5:15 PM 63.9 °F - 32.0 °F 30% 30.12 in 10.0 mi SW 11.5 mph - N/A   Clear
5:35 PM 63.0 °F - 32.0 °F 31% 30.12 in 10.0 mi SW 8.1 mph - N/A   Clear
5:58 PM 62.6 °F - 32.0 °F 32% 30.12 in 10.0 mi SSW 8.1 mph - N/A   Clear
6:16 PM 61.3 °F - 32.0 °F 33% 30.12 in 10.0 mi South 5.8 mph - N/A   Clear
6:35 PM 60.4 °F - 32.5 °F 35% 30.12 in 10.0 mi SSW 4.6 mph - N/A   Clear
6:56 PM 58.6 °F - 33.1 °F 38% 30.13 in 10.0 mi South 4.6 mph - N/A   Clear
7:15 PM 57.6 °F - 33.3 °F 40% 30.14 in 10.0 mi South 4.6 mph - N/A   Clear
7:38 PM 56.5 °F - 33.8 °F 42% 30.14 in 10.0 mi South 5.8 mph - N/A   Clear
7:56 PM 55.9 °F - 33.8 °F 43% 30.16 in 10.0 mi South 4.6 mph - N/A   Clear
8:15 PM 55.8 °F - 33.8 °F 44% 30.16 in 10.0 mi South 4.6 mph - N/A   Clear
8:35 PM 54.9 °F - 33.8 °F 45% 30.16 in 10.0 mi South 5.8 mph - N/A   Clear
8:55 PM 54.9 °F - 33.8 °F 45% 30.16 in 10.0 mi South 5.8 mph - N/A   Clear
9:18 PM 55.0 °F - 33.3 °F 44% 30.17 in 10.0 mi SSW 5.8 mph - N/A   Clear
9:36 PM 55.0 °F - 33.1 °F 43% 30.17 in 10.0 mi South 6.9 mph - N/A   Clear
9:55 PM 54.7 °F - 33.1 °F 44% 30.18 in 10.0 mi South 5.8 mph - N/A   Clear
10:15 PM 54.5 °F - 33.1 °F 44% 30.18 in 10.0 mi South 6.9 mph - N/A   Clear
10:35 PM 54.5 °F - 33.3 °F 45% 30.18 in 10.0 mi South 8.1 mph - N/A   Clear
10:40 PM 54.3 °F - 33.1 °F 45% 30.18 in 10.0 mi South 6.9 mph - N/A   Clear
10:58 PM 54.1 °F - 32.9 °F 45% 30.18 in 10.0 mi South 6.9 mph - N/A   Clear
11:16 PM 54.1 °F - 32.9 °F 45% 30.18 in 10.0 mi South 6.9 mph - N/A   Clear
11:35 PM 54.5 °F - 32.5 °F 43% 30.17 in 10.0 mi South 9.2 mph - N/A   Clear
11:55 PM 54.1 °F - 32.5 °F 44% 30.16 in 10.0 mi South 8.1 mph - N/A   Clear